Location: Coupvray
(48.8929°N, 2.7967°E)
Time: 12:55:51
(UTC+00:00)

Altair 2 - Pass Details

Date: 20 January 2021
Orbit: 837 x 949 km, 90.2° (Epoch: 28 February)

Event Time Altitude Azimuth Distance (km) Brightness Sun altitude
Rises 19:23:27 0° 211° (SSW) 3,395 11.2 -28.5°
Reaches altitude 10° 19:26:13 10° 224° (SW) 2,456 10.6 -28.9°
Maximum altitude 19:30:46 26° 280° (W) 1,590 9.7 -29.7°
Drops below altitude 10° 19:35:21 10° 337° (NNW) 2,465 10.4 -30.4°
Sets 19:38:09 0° 350° (N) 3,410 11.0 -30.9°
